User: anonymous   Login
Location: Cicognara
(44.9500°N, 10.4667°E)
Time: 09:34:26
(UTC+00:00)
Language:

Cosmos 1626 Rocket - Orbit

View from above orbital plane
View from above orbital plane
View from above satellite
View from above satellite

Ground track
Ground track

The orbit data is extracted from the following two-line orbital elements,

1 15495U 85009B   21263.21863984  .00000084  00000-0  72084-5 0  9999
2 15495  82.5267 169.7281 0018796 233.6841 126.2639 14.83922763959555
Epoch (UTC): 20 September 2021 05:14:50
Eccentricity: 0.0018796
inclination: 82.5267°
perigee height: 604 km
apogee height: 630 km
right ascension of ascending node: 169.7281°
argument of perigee: 233.6841°
revolutions per day: 14.83922763
mean anomaly at epoch: 126.2639°
orbit number at epoch: 95955

The dashed part of the orbit path shows where the satellite is in the earth's shadow,  

DLR